Wind_Speed
35 34 32 32 31 31 30 30 30 28 27 26 25 25 24 23 22 22 22 21 20 20 19 19 18 18 17 16 16 15 15 14 14 14 14 15 15 15 15 16 15 15 15
37 37 35 34 33 32 32 32 31 30 29 28 27 27 26 25 25 24 24 23 22 22 21 21 20 19 19 18 18 17 17 16 16 16 17 17 17 17 17 17 17 17 17
40 39 38 36 35 34 33 33 32 32 31 30 30 29 28 27 27 26 25 25 24 24 23 22 22 21 21 20 20 20 19 19 19 19 19 19 19 19 18 18 18 18 18
42 42 41 39 37 36 35 35 34 34 33 32 31 31 30 30 29 28 27 27 26 26 25 24 24 23 23 22 22 22 21 21 21 21 20 20 20 20 20 20 20 19 19
44 44 43 42 41 40 38 37 36 36 35 34 34 33 32 31 31 30 29 29 28 27 27 27 26 25 25 24 24 23 23 22 22 22 22 21 21 21 21 21 21 21 21
46 46 45 44 43 43 42 40 39 38 38 37 36 35 34 33 32 32 31 30 30 29 28 28 28 27 27 26 26 25 25 24 24 23 23 23 22 22 22 22 22 22 22
48 47 47 47 46 45 44 43 42 41 40 40 39 38 37 35 34 33 33 32 32 31 30 30 29 29 28 28 28 27 27 26 26 25 25 24 24 23 23 23 23 23 23
49 49 48 48 48 47 46 46 45 44 43 42 41 40 39 38 36 35 34 33 33 32 32 31 31 31 31 31 30 30 29 29 28 27 26 26 25 25 25 25 25 24 24
51 50 50 50 49 49 48 48 47 47 45 44 44 43 42 41 39 38 37 35 34 34 33 33 33 33 33 33 32 32 31 31 30 29 28 28 28 27 27 27 27 26 26
53 52 51 51 50 50 50 50 49 49 47 46 45 45 45 43 42 40 39 37 36 36 35 34 34 34 34 33 33 33 33 33 31 31 30 29 29 29 28 28 29 28 28
53 52 50 51 51 51 51 51 50 50 50 49 47 47 46 45 44 43 41 40 39 38 37 36 35 35 35 34 34 34 33 33 33 33 32 31 31 30 30 30 30 30 30
53 53 53 52 52 52 52 52 51 51 51 50 49 49 47 47 46 45 44 42 41 40 39 38 37 37 37 36 36 36 35 35 35 34 34 34 34 33 32 32 32 32 32
54 54 55 54 53 52 51 52 53 53 53 52 51 50 49 49 48 47 46 44 43 42 41 40 40 39 38 38 38 38 37 37 36 36 35 35 35 35 34 34 33 33 33
54 54 56 56 54 54 53 53 52 53 54 53 53 52 51 50 50 49 48 47 46 45 44 43 42 41 40 40 40 40 40 39 39 38 37 37 37 36 36 36 35 35 35
54 54 55 56 55 54 54 54 55 54 54 54 53 53 53 52 51 51 50 49 48 47 45 45 44 43 42 42 42 42 41 40 40 40 39 39 39 39 38 38 37 37 37
54 53 54 55 55 55 54 54 53 53 53 54 53 53 52 52 52 51 51 50 50 49 47 46 46 46 45 44 44 44 43 42 42 41 41 41 40 40 40 40 40 39 39
54 53 54 55 55 55 54 54 53 52 52 52 53 53 53 52 52 51 51 50 51 50 49 48 47 48 48 46 46 46 45 44 43 44 43 43 42 42 42 42 41 41 41
53 54 54 54 55 55 55 55 54 53 53 52 52 53 54 54 53 52 52 51 51 50 50 49 48 48 48 48 47 47 46 46 45 44 44 44 43 43 43 42 42 42 42
53 54 53 54 55 55 55 55 55 54 55 54 53 53 53 53 54 54 53 53 52 52 51 50 49 48 48 49 48 47 46 46 45 45 45 44 44 44 43 43 43 43 43
52 52 52 53 55 55 55 56 55 55 55 55 54 53 53 53 53 53 53 53 52 51 51 51 50 49 49 49 49 48 48 47 46 46 46 45 45 45 45 45 45 45 45
53 54 53 53 55 55 55 55 54 54 54 54 53 53 52 52 52 52 53 53 53 53 52 52 51 51 50 50 49 49 48 48 48 47 46 46 46 46 47 46 46 46 46
52 53 54 53 54 55 55 54 54 53 53 53 54 53 52 51 51 51 52 53 54 55 54 52 51 50 50 50 49 49 49 49 48 47 47 47 47 47 47 47 47 48 48
51 52 52 52 53 54 55 55 55 55 54 54 54 54 52 52 51 51 51 53 54 54 54 52 51 50 50 50 50 49 49 49 49 48 48 48 48 47 47 47 48 48 49
51 52 52 51 51 52 54 55 55 56 55 56 57 56 54 53 52 51 51 52 53 54 54 53 51 50 50 50 50 50 50 50 50 50 50 50 49 49 49 48 49 49 50
50 50 50 50 50 51 52 53 54 55 54 54 56 56 55 54 53 52 52 52 53 54 54 54 53 53 52 53 53 52 52 52 51 51 51 51 50 50 50 50 50 50 50
49 49 50 50 50 51 52 53 54 55 54 54 55 56 56 56 54 55 54 53 53 53 54 54 54 54 54 53 53 53 53 52 52 52 51 52 51 51 51 50 51 51 51
Wind_Direction
244 244 243 243 243 243 242 242 243 243 244 244 245 246 247 248 249 249 249 250 251 252 254 256 258 260 262 263 266 268 270 274 279 282 286 290 294 297 299 300 301 303 305
243 244 244 243 243 243 242 242 243 242 244 245 246 247 248 249 250 250 251 251 251 252 254 255 257 258 260 263 265 267 270 273 277 281 284 288 291 293 295 296 297 298 300
243 244 244 244 244 244 244 244 244 243 244 245 246 247 248 249 250 250 251 251 252 253 254 256 256 258 259 261 264 267 269 272 275 279 283 285 288 290 292 293 294 297 298
243 243 244 244 244 245 245 245 245 245 245 246 247 248 249 250 250 251 251 252 252 253 254 255 256 257 259 260 263 266 269 272 274 277 281 283 285 287 288 291 292 292 295
244 244 243 244 244 245 246 246 245 245 246 247 248 249 250 251 251 251 252 253 253 253 254 255 257 257 258 260 262 265 268 271 273 275 279 281 283 285 286 287 289 291 292
244 244 243 243 244 245 245 246 246 246 247 247 248 249 250 250 251 252 252 253 253 253 254 254 256 256 257 259 261 264 266 269 273 275 278 279 281 284 285 285 286 288 289
245 245 245 243 243 244 244 245 246 247 248 248 248 249 250 251 251 252 252 253 253 252 253 254 255 257 258 260 261 264 266 269 272 274 275 277 279 281 284 285 285 286 288
245 245 244 244 244 244 244 245 246 248 248 249 249 249 251 251 251 252 252 253 252 253 254 255 255 257 258 260 262 263 265 268 271 273 274 275 277 278 281 284 285 286 288
246 246 246 245 245 244 244 245 246 247 248 249 250 250 250 250 250 251 252 253 253 253 254 255 257 258 259 260 262 262 264 266 268 270 273 274 275 277 279 282 283 284 287
245 246 246 245 246 245 244 244 245 246 247 248 249 250 250 250 250 251 252 253 254 254 255 256 257 258 260 261 262 262 263 264 266 269 271 273 274 276 277 279 281 283 285
245 245 246 245 244 244 245 245 245 246 247 247 249 250 250 251 252 253 253 253 254 255 256 256 256 257 259 261 262 263 263 263 264 266 268 270 273 274 276 278 279 281 283
245 245 246 245 244 244 245 244 245 246 247 248 249 249 250 251 253 253 253 253 253 254 255 255 256 257 258 259 260 261 262 263 264 265 266 269 271 273 274 277 279 280 281
245 245 246 246 245 245 245 244 245 246 247 248 249 249 250 251 252 253 253 253 253 254 254 255 256 257 258 259 259 260 262 263 264 265 265 267 269 271 273 275 277 278 279
246 245 246 246 246 246 246 245 245 246 247 248 248 249 249 250 251 252 253 254 254 255 255 255 256 258 259 259 260 260 262 263 264 265 266 267 268 269 271 273 274 276 278
246 246 246 246 247 247 248 247 245 246 247 247 248 248 249 250 251 252 253 254 255 255 255 255 256 257 258 259 260 261 262 264 265 266 267 268 268 269 270 272 273 275 277
245 245 246 247 247 248 248 248 246 246 247 248 248 248 249 249 250 251 252 252 254 255 255 255 255 257 257 259 260 260 261 262 264 265 267 268 269 270 272 273 274 275 276
245 246 246 246 247 247 247 246 247 246 246 248 248 248 248 249 250 251 251 252 253 254 255 255 256 257 258 258 258 259 261 262 264 265 267 269 269 271 272 273 274 275 276
245 246 246 247 247 246 246 248 249 248 247 247 248 249 249 250 250 250 250 251 252 254 255 256 256 257 257 258 258 259 261 262 263 265 267 268 269 270 271 273 274 275 276
246 246 246 247 246 246 247 248 249 249 248 248 249 250 250 251 251 251 251 251 252 254 255 255 255 256 257 258 258 259 261 262 263 264 266 267 269 269 271 272 273 275 276
246 246 247 247 247 247 247 249 249 249 249 249 250 251 251 251 251 251 251 251 251 253 253 254 255 256 257 257 258 260 260 261 262 263 265 266 267 268 270 272 273 274 276
248 247 248 249 249 249 248 249 248 248 247 248 249 250 250 250 250 250 250 251 251 252 253 254 254 255 256 256 258 259 259 260 261 263 264 266 267 268 269 271 272 274 276
248 249 249 249 249 248 248 248 247 248 247 248 248 248 249 249 249 249 250 251 251 252 253 253 254 254 255 256 257 258 259 260 261 262 264 265 266 267 268 270 272 274 276
248 248 248 248 248 247 247 247 247 248 248 248 248 248 248 249 248 248 249 250 251 252 253 253 254 254 256 256 257 258 259 261 262 262 263 264 265 267 268 270 273 275 276
250 249 248 249 249 248 247 247 247 248 249 249 249 249 248 249 249 249 250 250 252 252 252 253 253 254 255 256 257 258 259 260 262 263 264 264 265 267 269 271 273 275 276
251 250 248 249 249 248 247 247 248 249 250 250 249 249 249 249 249 250 251 251 252 252 253 253 254 254 256 257 258 259 260 262 263 264 264 264 265 266 268 269 272 274 275
251 250 249 249 249 249 249 249 248 249 249 249 249 249 250 250 249 251 251 251 251 252 253 253 254 254 255 257 258 259 261 262 263 264 264 264 265 267 268 269 271 273 275
Height
5813 5815 5818 5820 5822 5825 5827 5829 5832 5834 5836 5838 5839 5841 5843 5845 5846 5848 5849 5851 5852 5853 5854 5855 5855 5856 5856 5857 5857 5857 5857 5857 5857 5857 5856 5856 5855 5854 5854 5853 5852 5851 5849
5806 5808 5811 5813 5816 5818 5821 5823 5825 5828 5830 5832 5834 5836 5838 5839 5841 5843 5844 5846 5847 5848 5849 5850 5851 5852 5852 5853 5853 5854 5854 5854 5854 5853 5853 5852 5852 5851 5850 5849 5848 5847 5846
5798 5801 5803 5806 5809 5811 5814 5816 5819 5821 5823 5826 5828 5830 5832 5834 5836 5837 5839 5840 5842 5843 5844 5845 5846 5847 5848 5848 5849 5849 5850 5850 5850 5849 5849 5849 5848 5847 5847 5846 5845 5844 5843
5788 5792 5795 5798 5801 5804 5806 5809 5812 5814 5817 5819 5821 5823 5826 5827 5829 5831 5833 5834 5836 5837 5839 5840 5841 5842 5843 5844 5844 5845 5845 5845 5845 5845 5845 5844 5844 5843 5842 5842 5841 5840 5839
5779 5782 5786 5789 5793 5796 5799 5801 5804 5807 5809 5812 5814 5816 5819 5821 5822 5824 5826 5828 5830 5831 5833 5834 5835 5836 5837 5838 5839 5839 5840 5840 5840 5840 5840 5839 5839 5838 5838 5837 5836 5835 5835
5769 5772 5776 5780 5783 5786 5790 5793 5795 5799 5801 5804 5806 5809 5811 5813 5815 5817 5819 5821 5823 5825 5826 5828 5829 5830 5831 5832 5833 5834 5834 5834 5835 5835 5835 5834 5834 5833 5833 5832 5831 5831 5830
5757 5761 5765 5769 5773 5776 5780 5783 5786 5789 5792 5795 5798 5800 5803 5805 5808 5810 5812 5814 5816 5817 5819 5821 5822 5823 5825 5826 5827 5828 5828 5829 5829 5829 5829 5829 5829 5828 5827 5827 5826 5825 5824
5745 5749 5753 5758 5762 5766 5769 5773 5777 5780 5783 5786 5789 5791 5794 5797 5799 5802 5804 5806 5808 5810 5812 5813 5815 5816 5817 5819 5820 5821 5821 5822 5822 5823 5823 5823 5823 5822 5822 5821 5820 5819 5819
5732 5737 5741 5745 5750 5754 5758 5762 5766 5770 5773 5776 5779 5782 5785 5788 5791 5794 5795 5798 5800 5802 5804 5805 5807 5808 5810 5811 5812 5813 5814 5815 5815 5816 5816 5816 5816 5816 5815 5815 5814 5813 5813
5720 5724 5728 5732 5737 5742 5747 5751 5754 5758 5762 5765 5768 5771 5775 5778 5781 5784 5787 5789 5791 5793 5795 5797 5799 5800 5801 5803 5804 5805 5806 5807 5808 5808 5809 5809 5809 5809 5809 5808 5807 5807 5806
5707 5711 5715 5719 5724 5729 5734 5738 5742 5746 5750 5754 5757 5761 5764 5767 5770 5773 5777 5780 5782 5784 5786 5788 5790 5792 5793 5794 5796 5797 5798 5799 5800 5801 5801 5801 5801 5801 5801 5801 5800 5800 5799
5694 5698 5702 5706 5711 5715 5721 5725 5730 5734 5738 5742 5746 5749 5753 5756 5759 5762 5766 5769 5772 5774 5776 5778 5780 5782 5784 5785 5787 5788 5789 5790 5791 5792 5793 5793 5793 5793 5793 5793 5793 5792 5791
5681 5685 5689 5693 5698 5702 5707 5712 5716 5721 5725 5729 5733 5737 5741 5745 5748 5751 5754 5757 5761 5764 5766 5768 5770 5772 5774 5776 5777 5779 5780 5781 5782 5783 5784 5784 5785 5785 5785 5785 5784 5784 5783
5668 5671 5676 5680 5685 5689 5693 5698 5703 5708 5712 5716 5721 5725 5729 5732 5736 5739 5742 5746 5749 5753 5755 5758 5759 5762 5764 5765 5767 5769 5770 5772 5773 5774 5775 5775 5775 5776 5775 5775 5775 5775 5774
5654 5658 5662 5666 5671 5676 5680 5685 5689 5694 5699 5703 5708 5712 5716 5720 5723 5727 5730 5733 5737 5740 5744 5747 5749 5751 5752 5754 5756 5758 5760 5761 5763 5764 5765 5765 5765 5765 5766 5766 5766 5765 5764
5640 5645 5649 5653 5658 5663 5667 5671 5676 5681 5685 5690 5694 5698 5703 5707 5710 5714 5717 5721 5724 5728 5732 5735 5737 5739 5741 5743 5745 5747 5749 5750 5752 5753 5754 5755 5755 5755 5755 5755 5755 5755 5754
5627 5631 5636 5640 5645 5649 5654 5658 5663 5667 5672 5676 5680 5684 5689 5693 5697 5701 5704 5708 5711 5715 5719 5723 5725 5727 5730 5732 5734 5735 5737 5739 5741 5742 5743 5743 5744 5744 5744 5744 5744 5744 5744
5614 5618 5623 5627 5631 5636 5640 5645 5649 5654 5658 5662 5667 5670 5675 5679 5683 5687 5691 5695 5698 5702 5706 5709 5713 5715 5717 5719 5722 5724 5725 5727 5729 5730 5731 5732 5732 5733 5733 5733 5733 5733 5733
5600 5605 5609 5613 5617 5622 5626 5631 5635 5640 5644 5648 5653 5657 5661 5665 5669 5673 5677 5681 5685 5688 5692 5695 5699 5702 5705 5707 5709 5711 5713 5715 5717 5718 5719 5720 5720 5721 5722 5722 5722 5722 5721
5587 5591 5596 5600 5604 5608 5612 5617 5622 5626 5630 5634 5639 5643 5647 5651 5655 5659 5663 5667 5671 5674 5678 5682 5686 5689 5691 5694 5696 5698 5701 5703 5704 5705 5706 5708 5708 5709 5710 5710 5711 5710 5710
5573 5578 5582 5586 5590 5594 5599 5603 5608 5612 5616 5620 5625 5629 5633 5637 5641 5645 5649 5653 5657 5660 5664 5668 5672 5675 5678 5681 5683 5685 5687 5689 5691 5693 5694 5695 5696 5697 5697 5698 5698 5698 5697
5560 5564 5569 5573 5577 5581 5585 5588 5593 5597 5602 5606 5611 5615 5619 5623 5628 5631 5635 5638 5642 5646 5650 5654 5658 5661 5665 5667 5669 5672 5674 5676 5679 5681 5681 5682 5683 5684 5685 5685 5685 5685 5684
5547 5551 5555 5559 5563 5567 5570 5574 5579 5583 5588 5592 5596 5601 5605 5610 5613 5617 5621 5624 5628 5632 5636 5640 5644 5647 5651 5654 5656 5659 5661 5663 5665 5667 5667 5669 5670 5671 5672 5672 5672 5671 5671
5533 5537 5541 5544 5548 5552 5556 5560 5564 5569 5573 5577 5582 5586 5591 5595 5599 5603 5607 5610 5614 5618 5622 5626 5631 5635 5637 5639 5642 5645 5647 5649 5651 5652 5653 5656 5657 5658 5659 5658 5658 5658 5657
5520 5523 5527 5531 5534 5538 5542 5545 5549 5554 5558 5563 5567 5571 5576 5581 5585 5589 5593 5597 5600 5604 5607 5611 5616 5619 5622 5625 5628 5630 5632 5635 5637 5639 5640 5641 5643 5644 5645 5645 5644 5644 5643
5507 5510 5514 5517 5520 5524 5527 5531 5535 5539 5544 5549 5552 5557 5562 5566 5570 5573 5578 5582 5586 5590 5593 5597 5600 5604 5607 5610 5613 5616 5618 5620 5622 5625 5626 5627 5628 5629 5631 5632 5631 5630 5630